T 2002 Oct. 26.8516 TT MPC q 4.240169 (2000.0) P Q n 0.0433803 Peri. 37.3269 +0.5164938 +0.8333936 a 8.021843 Node 264.5700 -0.8255602 +0.4236560 e 0.471422 Incl. 11.3956 -0.2273422 +0.3549235 P 22.7 >From 93 observations 2003 Aug. 23-Oct. 20.
m1 = 10.0 + 5 logΔ + 10.0 log r